Wind_Speed
20 20 20 20 20 20 19 19 19 19 20 20 20 19 19 18 18 17 17 17 16 15 13 13 12 13 13 12 12 12 13 14 15 17 19 19 14 9 11 13 13 16 14 10 11 11 11 12 14 16 18 19 19 17 15 15 14 13 12 10 8 8 6 6 5 6 6 5 7 7 6 6 6 6 6 6 5 6 6 5 6 7 5 5 4 3 2 4
22 22 22 22 21 21 21 20 20 20 20 20 20 20 20 19 19 18 18 17 16 16 15 14 14 14 14 14 14 14 14 15 16 17 17 16 16 14 14 15 15 16 16 14 15 15 13 13 13 14 16 19 20 18 16 16 16 14 13 11 9 8 7 9 7 6 7 7 9 8 7 7 5 5 5 4 5 7 7 6 7 8 7 5 4 2 2 3
24 24 24 24 24 23 23 22 22 21 21 21 21 21 20 20 20 20 19 19 18 17 16 15 15 15 16 16 15 15 15 16 18 17 15 15 17 18 17 18 19 19 20 20 19 19 17 15 14 14 15 18 18 18 17 17 16 15 14 13 12 9 8 10 8 7 8 9 9 8 9 8 5 3 2 2 5 7 8 7 7 8 7 5 4 3 3 3
27 27 27 27 26 26 26 25 24 24 23 22 22 22 21 20 20 20 20 20 19 18 17 16 16 16 17 18 17 16 17 18 18 17 15 16 17 19 20 20 21 22 23 23 22 22 19 14 13 13 14 15 16 17 18 17 17 16 15 14 12 10 10 10 10 9 9 10 10 9 8 7 5 4 2 2 4 6 7 7 7 7 6 5 4 4 3 4
28 29 29 29 29 29 28 28 27 27 26 25 25 24 23 22 21 21 21 21 21 20 18 17 17 17 17 18 19 18 18 19 19 17 16 17 18 19 20 21 23 22 22 23 22 22 19 14 13 13 12 12 13 16 18 18 17 16 15 13 12 11 11 11 11 11 10 11 11 8 7 5 5 6 4 3 3 4 6 7 7 7 5 4 4 4 4 5
29 29 30 30 30 30 30 30 30 29 29 28 28 27 26 25 24 23 22 22 22 21 20 19 18 18 18 18 20 20 20 21 19 18 18 19 19 18 20 22 23 23 22 23 23 22 20 18 16 14 13 12 12 16 18 18 17 16 15 14 14 14 13 12 11 12 12 12 10 6 6 7 6 6 6 4 3 5 6 7 7 6 4 3 3 3 3 5
30 30 30 31 31 31 31 31 31 31 31 30 30 30 29 28 27 26 24 23 23 22 21 21 20 19 19 19 20 21 22 22 19 19 20 20 20 19 20 21 22 22 21 22 23 22 20 19 17 17 17 15 14 16 18 18 18 17 17 17 17 16 14 13 13 13 13 13 11 7 7 7 7 7 7 5 5 5 6 6 7 7 5 4 5 3 3 4
29 30 30 31 31 32 32 32 32 32 32 31 31 31 31 31 30 29 28 26 25 24 23 22 21 21 20 19 20 21 23 23 21 21 22 22 21 20 20 21 21 22 23 24 24 23 22 20 19 20 20 18 17 19 20 19 19 19 19 19 18 17 16 16 15 14 14 14 14 12 10 8 9 9 7 5 6 6 6 6 7 9 7 6 6 5 4 4
29 30 30 31 31 32 32 32 33 33 33 33 32 32 32 32 32 31 30 29 29 27 25 23 23 22 21 21 21 22 23 23 23 23 23 23 23 21 20 21 21 22 24 26 26 25 23 21 21 21 21 22 23 23 22 21 20 20 21 21 20 20 20 18 17 16 14 14 16 16 12 9 9 9 7 6 6 8 7 7 8 9 8 7 7 6 5 4
29 29 30 30 31 32 32 33 33 33 34 34 34 33 33 33 33 33 32 32 31 31 29 27 25 23 23 22 22 24 24 23 24 25 24 24 24 22 21 22 22 22 24 26 27 24 22 22 24 25 26 27 27 27 25 22 22 24 24 24 24 24 22 22 21 18 14 13 13 14 12 10 9 8 8 6 6 8 6 6 8 8 7 6 7 6 5 5
28 29 30 30 31 31 32 32 33 34 34 35 35 35 34 34 34 34 34 33 33 33 32 31 28 26 24 23 24 26 25 23 25 26 24 24 25 24 23 23 24 23 23 24 25 26 26 26 29 30 30 29 29 29 26 23 24 26 26 27 27 26 25 24 23 20 16 14 12 11 12 9 8 8 8 5 4 6 4 5 8 7 7 6 6 6 5 4
29 29 30 30 30 31 31 32 33 33 34 35 35 35 35 35 35 35 35 35 35 34 34 33 32 30 27 24 26 29 26 24 24 25 25 25 26 27 26 24 25 25 24 23 24 28 30 31 33 31 30 30 30 30 27 25 27 29 29 29 28 27 26 24 23 23 20 17 14 11 11 7 7 9 8 6 4 6 6 6 7 7 7 6 5 6 5 4
31 31 31 31 31 31 32 32 32 33 33 34 35 35 35 35 36 36 36 37 36 36 35 35 33 33 30 28 30 31 27 25 23 24 26 27 28 29 29 27 27 27 26 25 26 29 32 34 33 30 31 32 31 31 28 28 30 31 31 30 29 28 25 23 23 24 22 19 17 13 10 8 8 9 9 8 7 7 8 7 6 7 7 6 4 5 5 4
33 33 33 34 33 33 34 33 33 34 34 34 35 35 35 35 35 36 37 37 38 37 37 36 35 34 32 31 35 33 29 27 25 26 29 30 31 31 31 30 29 28 27 27 28 29 31 34 34 33 35 34 31 32 30 30 32 31 31 30 29 28 24 24 24 24 23 21 20 16 13 12 11 11 11 10 9 10 10 8 6 6 7 6 5 6 5 5
35 36 36 36 36 36 36 36 36 36 36 36 36 36 35 35 35 35 36 37 38 38 38 38 37 36 33 33 38 36 32 30 29 30 30 31 33 32 31 32 31 30 30 30 30 30 31 32 33 34 34 32 34 36 33 32 32 32 32 29 27 26 24 25 25 22 22 22 21 18 16 15 14 13 14 13 11 10 9 8 6 6 7 7 6 5 5 5
38 38 39 39 39 39 39 38 38 38 38 38 39 38 36 36 35 35 36 38 39 39 38 39 38 38 35 34 39 40 36 34 32 31 30 31 32 33 33 33 33 32 31 32 32 32 33 32 31 33 34 36 38 37 34 34 34 33 31 26 23 22 23 25 23 21 22 23 23 19 18 17 16 15 16 15 13 11 10 10 7 5 8 8 7 5 4 4
41 41 42 43 43 42 42 42 42 41 40 40 40 40 39 38 37 36 37 39 40 39 38 38 38 38 37 36 39 42 41 38 35 33 32 31 32 33 34 32 32 33 33 35 35 35 34 32 31 33 36 38 38 37 37 36 32 29 27 24 22 20 22 24 22 21 23 25 22 19 20 19 17 18 17 15 14 11 11 11 7 6 8 9 8 6 4 3
43 44 45 45 46 45 45 45 44 44 44 43 43 42 41 40 39 38 39 41 41 40 39 38 38 38 38 37 39 42 43 41 38 35 33 34 34 33 33 32 34 36 37 37 36 36 34 32 31 33 36 38 38 39 37 31 26 24 23 21 21 19 19 21 21 21 24 25 21 19 22 21 20 19 17 17 16 12 10 11 9 9 9 10 9 7 4 2
46 47 48 48 48 47 47 47 47 46 46 46 46 45 44 43 42 41 43 44 42 42 41 39 38 38 37 38 40 42 44 43 41 38 36 37 37 36 35 35 36 37 39 38 36 36 35 34 35 35 34 33 33 33 30 26 25 26 25 23 23 21 18 18 20 21 24 24 22 20 21 21 20 19 17 16 15 13 11 11 11 11 10 10 10 6 3 2
48 49 50 50 50 49 49 48 48 47 47 47 47 47 46 45 44 44 46 48 45 43 43 41 39 38 37 38 42 42 43 45 44 41 40 40 41 40 39 40 39 38 38 36 35 36 37 38 38 32 25 23 25 28 28 28 29 29 28 26 24 23 19 17 20 22 24 25 21 18 19 21 20 18 18 17 15 13 10 11 12 11 9 10 11 6 3 2
50 51 51 50 50 50 49 49 49 49 48 48 48 48 48 47 46 45 46 48 49 46 44 44 42 40 39 39 41 43 42 44 44 43 42 43 44 43 42 43 42 39 35 34 36 38 40 42 35 25 21 22 25 28 30 31 32 32 31 28 25 24 21 19 21 24 27 26 21 19 20 22 21 19 20 20 18 14 9 9 12 10 9 10 11 6 2 3
51 51 50 49 49 49 49 48 49 49 49 48 48 49 48 48 48 47 45 45 49 50 48 47 45 44 42 40 41 43 42 42 44 45 45 46 48 47 46 45 43 39 33 36 40 41 44 39 27 23 26 28 28 29 30 30 32 34 33 31 27 23 22 22 24 26 29 27 22 21 23 22 20 20 21 20 19 16 14 11 11 10 11 10 10 6 3 3
49 49 49 47 46 47 47 46 47 47 47 47 48 48 48 48 48 49 48 46 48 51 50 50 49 48 46 42 42 44 43 42 43 46 47 47 49 49 49 47 45 41 38 40 41 42 41 30 23 28 31 31 30 31 30 30 33 35 36 34 27 23 24 24 24 28 30 27 24 24 25 23 21 21 23 21 19 18 18 15 13 13 14 11 9 7 5 3
46 45 44 43 41 42 42 42 43 43 44 45 45 45 46 47 47 48 49 49 49 50 51 51 51 51 49 46 44 45 45 43 44 48 49 49 49 50 51 49 47 45 43 42 40 41 36 25 27 34 32 31 32 32 32 32 33 35 37 34 27 24 25 24 26 31 32 28 27 28 29 28 27 26 26 23 22 22 22 20 18 17 17 15 12 10 7 5
41 39 39 38 36 36 36 36 37 38 40 42 43 43 43 44 45 46 46 46 48 50 50 51 51 51 51 49 47 47 47 45 46 50 51 50 50 51 51 51 50 48 46 44 42 41 35 28 33 35 33 34 35 34 34 32 32 34 36 32 26 25 25 26 30 34 34 31 29 30 33 33 32 31 27 23 23 24 23 23 22 20 20 19 16 12 10 7
36 35 34 32 29 28 28 28 29 30 33 36 38 39 40 40 41 42 43 42 43 46 47 47 49 50 51 50 50 50 49 48 48 50 52 51 51 51 52 53 53 50 48 47 47 44 36 33 36 37 37 38 38 37 35 32 33 33 31 27 26 27 28 29 33 37 37 34 31 32 35 35 35 33 28 25 24 23 22 23 23 22 23 22 18 13 11 9
32 29 28 27 25 25 25 25 25 26 26 28 30 32 34 35 35 37 39 38 39 41 42 44 45 46 50 51 51 52 53 52 51 51 53 54 53 52 52 53 54 53 51 51 52 48 40 38 41 40 39 40 41 39 35 33 33 27 23 26 30 32 31 30 34 38 37 34 35 38 38 37 38 34 28 26 25 22 22 23 23 24 25 23 20 16 13 11
27 25 27 29 29 29 27 25 25 25 25 25 26 27 27 28 29 31 34 35 35 35 37 40 40 41 47 49 50 53 55 53 52 53 55 54 54 54 55 55 55 55 54 55 55 48 40 41 42 40 40 41 39 35 32 34 32 23 22 29 33 34 33 31 36 40 38 38 41 41 39 40 39 34 29 28 27 25 23 23 22 22 23 22 21 19 17 14
26 27 30 32 32 31 28 25 23 24 25 25 25 25 25 25 26 27 29 31 33 33 33 35 36 38 43 45 47 52 55 53 50 52 55 55 55 56 56 55 55 55 55 56 55 47 42 44 44 42 41 40 36 33 33 36 33 25 26 32 34 36 36 36 40 43 43 46 46 42 41 41 39 35 33 33 30 26 23 22 20 19 18 20 21 20 19 18
28 30 31 33 34 33 31 28 25 23 24 25 25 25 25 26 26 27 29 29 29 30 30 31 33 34 38 43 45 48 52 53 49 50 53 56 57 57 57 56 55 55 55 57 57 51 48 48 47 46 43 39 38 36 36 36 32 29 31 34 37 40 40 40 44 46 49 53 48 41 41 42 41 38 36 33 26 21 20 21 19 17 17 18 20 21 21 20
31 32 34 36 36 36 35 33 30 27 26 25 25 25 25 27 28 29 31 31 31 31 29 29 31 32 36 40 43 45 48 49 47 48 52 55 58 59 58 57 57 57 57 58 59 56 53 53 51 49 45 43 43 41 39 37 34 35 37 38 40 43 45 45 47 51 56 58 48 41 41 45 46 40 36 32 23 18 19 20 17 15 13 12 16 20 21 20
34 36 38 39 39 39 38 36 33 30 28 26 25 25 26 28 30 31 32 32 35 35 31 30 30 31 34 37 39 42 45 45 44 47 51 54 59 61 62 62 62 62 62 61 61 59 58 56 53 52 49 48 47 44 43 41 39 40 42 42 43 46 49 51 53 55 59 57 47 41 43 48 49 40 35 33 25 19 18 19 18 14 12 8 9 13 17 18
38 40 41 42 41 40 39 35 32 30 28 26 25 25 27 30 33 34 33 32 34 35 33 34 33 33 35 36 37 39 43 43 40 44 51 55 61 64 65 66 65 66 65 63 63 62 60 58 56 55 53 51 49 47 47 47 44 44 44 45 46 48 52 56 57 57 59 56 47 43 45 51 50 38 33 32 25 18 16 19 20 17 13 11 8 9 14 18
40 42 43 42 41 39 37 33 29 28 27 26 26 27 29 32 34 35 34 33 33 34 34 36 36 37 37 37 37 36 40 43 39 43 51 56 61 65 66 66 65 66 66 64 64 64 64 61 58 57 55 52 51 49 47 46 45 43 42 43 44 46 48 51 54 55 56 53 47 45 49 54 48 33 27 29 26 22 19 18 21 20 17 15 13 11 15 19
42 42 42 41 39 37 34 31 28 26 26 26 28 29 30 32 34 34 35 35 36 37 37 37 37 39 39 39 40 37 38 42 41 43 50 56 60 65 67 67 65 66 65 64 65 66 67 63 57 55 55 53 51 49 46 46 47 44 42 43 45 43 42 44 49 52 53 51 47 48 52 53 45 32 26 28 29 27 24 20 21 22 20 20 19 16 17 20
42 40 40 39 37 35 32 29 27 25 25 27 29 31 32 33 35 36 37 38 40 40 40 39 40 40 40 40 42 40 38 40 42 44 51 56 59 63 67 67 66 66 66 65 66 68 69 66 59 56 57 54 51 49 48 49 48 46 46 47 44 39 38 41 45 48 52 52 48 49 53 52 45 36 30 31 32 31 28 24 21 21 21 23 23 21 20 21
40 38 38 36 34 32 30 28 27 25 27 29 31 33 34 36 37 39 40 42 43 43 41 41 41 42 42 41 43 42 39 39 41 45 53 57 58 61 65 67 67 68 68 67 67 69 71 68 64 61 60 56 52 50 50 49 48 47 47 45 40 37 40 42 42 46 51 53 48 47 51 53 48 38 32 33 34 33 31 26 22 21 22 22 23 22 21 21
39 39 37 35 33 31 29 27 26 26 28 31 33 34 36 37 39 41 43 44 44 44 42 40 40 40 41 42 44 43 41 41 42 45 54 59 58 60 63 66 68 69 69 68 69 70 72 70 66 64 62 59 55 52 51 51 49 47 44 42 40 41 43 44 44 46 50 52 49 47 51 54 49 38 32 33 34 33 32 28 24 23 21 20 19 18 20 22
40 39 38 36 33 30 29 27 27 27 30 32 34 36 37 39 41 43 45 44 43 40 37 35 36 37 39 43 46 45 43 44 44 47 54 61 60 59 62 65 67 69 69 69 69 71 72 70 67 65 63 61 59 55 54 53 51 49 47 45 43 43 43 43 43 43 45 47 46 45 49 51 46 35 30 32 33 32 32 31 29 26 22 19 17 16 17 20
41 39 36 35 34 31 29 28 28 29 31 33 35 37 38 40 42 44 43 40 36 32 29 30 32 34 36 41 45 46 44 44 46 49 55 61 61 59 60 64 66 68 70 69 70 71 72 72 68 66 65 63 60 58 56 53 51 51 52 50 48 47 45 43 43 42 42 43 43 42 44 43 38 32 29 29 31 32 33 33 32 30 25 21 18 17 17 18
41 38 34 33 32 30 28 28 28 30 32 33 36 37 39 41 42 42 39 33 27 24 23 26 30 32 34 38 41 43 43 42 45 51 56 61 62 59 59 63 66 67 69 69 70 71 72 73 69 66 67 65 61 59 56 53 51 51 52 52 49 49 47 44 46 45 42 42 41 40 40 36 32 31 29 27 28 30 32 34 32 30 28 24 21 20 20 19
41 38 35 32 30 28 28 28 29 30 32 35 37 38 40 41 40 39 34 27 24 22 21 23 27 29 31 34 36 38 40 40 42 50 57 61 62 60 58 61 65 67 68 69 69 71 73 73 70 67 68 66 61 59 57 55 54 52 53 52 49 49 48 46 47 45 42 42 40 39 37 27 23 27 30 29 29 29 32 36 35 31 30 28 24 22 22 22
40 39 36 32 29 27 27 28 29 31 34 36 38 39 40 40 38 36 29 25 25 23 20 20 24 27 28 30 32 33 36 38 40 44 52 58 61 60 57 59 63 66 68 69 69 71 72 72 70 67 66 63 58 57 57 56 55 54 54 53 52 51 48 45 44 41 40 40 37 36 33 21 20 27 30 30 30 29 32 37 37 32 29 29 27 25 25 25
40 39 36 32 28 26 26 27 29 32 35 37 38 39 39 38 36 31 26 26 26 24 21 20 22 25 26 26 28 30 31 35 37 40 46 52 58 61 58 57 61 65 67 69 70 71 71 71 70 66 63 59 56 55 57 57 58 56 54 53 52 50 47 45 44 40 40 39 35 35 29 20 22 26 26 27 28 28 31 34 33 30 27 28 28 27 27 27
39 38 37 33 28 25 25 27 29 32 35 37 37 37 36 35 33 27 24 25 26 24 22 20 22 24 25 24 25 27 28 31 34 38 43 48 55 60 59 56 59 64 67 69 71 72 72 71 70 67 63 60 58 58 60 61 61 59 56 54 52 50 48 47 45 43 43 40 36 35 27 21 23 26 24 25 27 27 30 30 27 27 27 27 27 28 28 28
39 38 37 34 30 27 25 26 29 32 35 36 35 35 33 31 28 25 23 23 22 20 17 17 20 22 23 23 23 24 26 29 32 37 42 46 51 58 60 56 57 63 67 68 69 72 73 72 70 68 65 63 62 63 64 63 62 61 59 56 53 51 50 48 47 46 44 40 37 36 27 22 25 28 26 26 27 26 27 26 24 26 26 25 26 26 27 30
40 39 39 36 32 29 27 27 30 33 36 36 34 32 32 29 24 22 21 19 17 15 14 14 17 19 21 22 23 23 24 27 30 34 40 43 46 55 61 57 55 61 66 67 68 71 72 72 70 68 66 65 64 64 64 63 62 61 60 59 56 54 52 50 50 47 43 40 39 35 27 24 27 27 27 26 26 26 24 22 22 23 23 23 24 24 26 31
40 40 40 37 34 30 28 28 31 34 36 37 34 31 30 27 21 18 17 16 15 13 12 13 15 17 19 20 22 23 23 26 29 31 36 38 40 50 62 60 55 58 64 67 68 71 71 71 71 67 66 67 65 63 63 62 61 60 60 59 57 55 54 52 50 47 42 41 39 32 26 26 26 25 24 25 25 24 22 20 19 18 19 22 23 23 25 30
41 40 39 38 35 31 27 28 31 33 35 36 34 30 29 26 18 15 14 13 14 12 11 13 15 16 19 20 22 24 25 27 28 28 31 34 34 43 58 62 56 56 62 65 67 71 71 70 71 68 65 66 64 62 62 62 60 60 60 60 59 58 56 53 49 45 42 40 35 28 26 27 26 25 26 27 27 25 23 22 22 20 20 22 23 23 24 27
41 39 39 38 35 31 28 28 30 32 34 34 32 29 28 24 16 13 13 11 12 12 11 12 14 16 18 21 22 24 26 27 27 27 29 30 30 37 53 61 58 55 59 64 66 70 70 69 70 67 64 63 64 63 62 60 59 59 60 61 61 59 56 53 48 43 40 37 33 29 29 29 28 29 32 32 30 28 26 26 26 24 23 22 21 21 22 25
41 39 38 37 35 31 28 27 29 31 33 33 31 28 26 23 16 13 14 12 12 13 13 14 16 17 19 21 22 24 25 26 25 25 26 27 26 32 46 59 59 54 55 61 66 68 69 69 69 66 63 62 63 63 61 58 57 59 60 61 61 58 53 49 46 44 41 37 33 32 32 32 32 32 34 35 33 31 30 29 27 27 27 23 19 18 19 22
42 39 37 35 33 30 28 27 28 31 32 32 30 27 25 24 18 13 13 13 13 13 14 15 16 17 19 20 21 22 23 24 24 23 24 23 23 28 41 56 60 53 49 57 66 68 68 69 69 65 62 62 64 64 60 57 56 58 60 61 59 55 51 47 45 44 42 39 36 36 35 35 36 35 34 35 35 32 30 30 29 30 30 25 19 16 17 19
Wind_Direction
290 290 290 289 289 288 287 285 284 283 282 281 280 280 279 279 278 277 277 278 279 277 271 262 258 258 254 249 247 245 245 244 242 233 228 227 230 241 226 221 215 211 219 209 209 216 216 219 218 215 212 211 212 213 217 222 221 218 217 207 185 172 177 204 196 187 195 156 143 140 127 127 122 114 114 126 146 145 145 149 135 124 121 111 97 84 106 117
290 290 290 290 290 289 289 287 286 285 284 283 281 279 278 278 277 276 276 275 276 275 272 266 257 255 255 251 245 245 244 243 245 240 236 234 231 233 223 217 214 211 217 216 212 214 216 218 216 212 210 211 212 212 216 222 224 220 216 210 199 191 189 205 213 205 192 160 148 143 130 126 111 102 114 136 160 154 144 138 126 116 112 109 107 97 95 113
287 287 287 287 287 287 287 286 286 285 285 284 282 280 278 277 276 275 275 274 274 273 271 268 261 254 253 252 247 243 244 243 245 243 241 236 230 228 222 215 212 209 212 215 211 210 214 214 211 207 205 208 206 206 212 217 222 223 218 214 210 204 198 206 216 201 176 162 154 140 135 134 122 110 118 143 157 149 137 130 118 105 106 108 110 114 105 112
284 283 283 283 283 283 283 283 283 282 283 282 282 281 279 277 275 274 273 273 273 272 270 267 264 258 253 252 249 244 243 245 244 243 242 239 232 228 225 220 218 214 212 215 212 211 217 214 207 210 210 206 198 198 206 213 218 222 222 220 218 214 208 208 208 195 171 163 160 141 138 144 144 140 154 171 152 146 135 126 114 99 104 110 110 116 115 120
282 281 281 280 280 279 279 279 278 278 278 278 278 278 278 277 275 273 272 271 271 270 269 267 264 260 255 252 250 246 243 245 243 240 241 241 237 231 227 223 223 221 216 218 217 216 221 219 211 213 215 208 195 192 198 209 216 221 227 231 231 226 217 212 206 199 183 169 166 152 141 150 152 142 161 183 154 145 132 118 108 95 100 106 107 116 121 124
282 281 280 279 279 278 277 277 276 275 274 274 274 274 274 274 274 273 271 270 269 268 267 266 263 260 258 253 250 248 245 244 242 240 240 240 240 235 230 227 227 227 222 220 221 219 219 217 215 215 219 214 200 197 198 205 215 222 229 235 238 235 227 216 208 205 195 180 174 164 149 153 151 149 171 176 139 135 121 113 107 96 97 94 95 113 123 125
284 282 281 280 279 278 277 276 275 274 273 271 271 270 270 270 270 270 270 269 267 266 265 264 262 259 257 255 251 249 247 245 241 239 239 239 239 236 233 229 229 230 228 224 223 222 220 217 215 216 219 217 209 212 211 207 213 220 225 230 235 238 235 227 219 214 205 191 183 177 166 161 149 155 181 167 136 133 113 111 107 97 93 83 84 94 107 118
285 284 282 281 280 279 278 276 275 273 272 271 269 269 268 267 267 266 266 266 266 264 262 261 260 258 256 254 252 249 248 246 242 238 238 238 237 236 235 231 229 228 226 224 223 221 219 214 212 215 218 218 216 219 219 213 214 219 222 226 231 236 237 234 228 221 210 193 183 180 174 166 153 158 185 173 142 136 119 111 101 98 94 77 76 78 81 100
286 285 284 283 281 280 279 277 276 274 273 271 269 268 267 266 265 264 263 262 263 263 261 260 257 256 255 253 252 250 248 246 244 241 238 238 237 235 234 233 228 226 225 224 222 221 218 212 209 214 217 219 219 219 217 214 214 217 220 222 225 229 231 232 229 222 212 190 177 176 176 175 164 162 184 184 147 134 124 111 102 98 90 74 71 70 74 86
289 288 286 285 283 281 280 278 277 275 273 272 270 268 266 265 264 263 262 260 259 260 259 258 256 255 254 252 251 251 248 245 243 242 239 238 238 235 233 234 231 227 226 226 224 222 220 214 210 211 213 215 215 217 215 210 213 215 216 218 222 225 227 229 228 221 214 204 186 173 176 179 166 167 181 183 154 135 120 113 114 100 83 70 66 68 71 79
294 292 290 288 286 284 282 280 278 276 274 273 271 269 267 265 264 263 262 260 258 257 257 256 255 253 252 251 251 250 247 243 242 243 241 238 238 236 231 231 233 230 226 226 225 220 217 214 213 212 212 214 214 217 214 207 213 216 215 218 222 225 226 228 229 224 216 221 218 184 180 177 155 170 180 173 156 137 131 135 125 105 90 73 61 67 63 67
298 296 294 292 290 288 285 283 281 278 276 274 272 270 268 266 265 263 262 260 258 256 255 254 253 252 250 248 248 249 246 242 242 242 241 239 237 236 233 229 230 232 227 224 222 220 217 215 216 214 213 215 216 218 214 207 213 216 217 219 221 225 228 230 232 230 220 218 228 205 184 173 153 173 183 184 174 142 152 164 136 114 108 93 69 66 57 57
300 298 296 294 292 290 288 286 284 281 278 276 273 270 268 266 265 263 262 261 259 257 255 253 251 250 248 246 247 248 245 243 241 240 239 238 236 235 234 230 228 229 228 224 221 220 219 218 218 214 214 217 217 220 218 212 214 216 220 221 222 226 229 233 234 235 227 215 220 214 189 186 182 182 187 199 200 174 177 180 146 124 125 120 94 75 67 59
302 300 298 295 293 291 289 287 285 283 281 279 276 273 270 267 265 264 262 261 259 257 255 253 250 248 246 244 246 246 243 241 237 235 234 234 234 232 232 233 229 228 228 227 224 223 221 220 219 215 215 216 216 221 221 217 218 219 222 221 222 225 224 229 234 237 235 219 213 210 196 198 197 187 190 203 205 194 193 188 158 132 135 136 110 86 77 63
305 303 301 298 296 293 290 288 286 283 282 280 278 275 272 270 267 265 263 260 258 257 255 253 251 248 244 242 246 246 241 238 236 235 234 233 235 233 231 233 231 228 227 228 227 225 224 222 221 219 218 216 217 220 219 219 220 221 225 224 223 223 220 226 230 232 235 226 215 208 201 201 195 187 193 203 204 202 202 195 173 143 141 139 112 83 74 65
304 303 301 299 297 295 293 290 287 285 282 280 278 275 273 272 269 267 265 262 258 255 254 254 252 250 245 241 245 247 241 236 235 236 236 236 238 238 234 233 233 232 228 230 229 227 226 223 220 220 220 218 219 221 220 221 220 220 225 227 227 224 219 224 227 226 229 229 221 209 204 203 191 186 191 198 207 211 212 206 193 161 147 136 112 81 66 64
303 302 300 298 296 294 292 290 288 286 283 281 278 276 273 271 269 268 267 264 259 255 253 252 251 250 248 242 242 246 244 238 234 234 234 235 236 239 239 236 234 235 231 230 231 231 230 226 221 220 220 221 221 221 221 224 223 222 225 226 228 225 219 221 222 224 228 231 227 212 208 206 190 186 186 189 199 207 213 217 211 178 153 135 115 93 77 73
301 300 300 298 295 293 291 288 286 284 282 281 279 276 274 272 269 268 267 264 260 257 253 251 250 249 249 244 241 243 245 242 235 232 232 234 234 235 238 237 233 232 233 231 231 232 232 229 226 223 222 223 223 224 226 228 230 231 231 228 227 226 220 219 218 224 229 235 235 219 215 213 197 190 186 188 196 203 220 228 213 187 164 142 123 108 103 94
299 299 298 296 294 292 290 287 284 282 280 278 277 276 274 272 270 268 267 263 260 259 256 251 249 249 249 247 242 240 242 243 239 232 230 232 234 231 232 235 233 231 233 232 231 233 234 231 229 226 226 228 230 233 235 233 231 232 231 227 225 224 220 214 214 220 225 229 234 229 225 223 212 202 193 191 197 203 221 230 209 189 174 149 129 117 119 104
298 297 297 295 293 291 288 286 283 280 278 275 274 273 272 271 270 268 267 264 260 258 257 254 249 247 247 247 244 240 239 241 241 235 230 230 233 231 230 232 233 231 231 234 233 233 234 233 231 231 234 238 238 238 235 229 227 229 229 224 220 218 212 207 209 215 219 221 224 225 226 228 225 217 202 191 192 197 210 224 210 192 183 160 136 125 131 123
298 296 295 294 292 290 288 285 283 280 277 274 272 270 268 267 266 265 266 265 261 257 255 254 251 248 246 244 245 243 239 239 240 237 231 229 232 232 231 232 233 231 230 234 235 232 232 231 230 230 231 231 230 231 230 226 225 227 229 225 219 212 202 199 206 211 217 217 211 208 216 223 223 222 213 196 187 185 180 206 215 207 202 176 143 132 135 122
299 297 296 295 294 291 288 287 284 281 278 275 272 269 266 264 262 259 258 258 260 259 256 253 251 248 245 242 243 243 241 239 239 238 233 229 229 231 231 232 234 233 228 229 232 232 232 230 227 226 227 225 224 225 225 222 222 225 227 225 219 208 197 197 204 211 217 215 205 203 212 219 216 215 216 201 185 175 165 179 212 223 223 196 155 149 151 116
303 301 299 298 297 295 292 290 287 285 281 277 274 271 267 264 261 258 254 251 254 257 257 255 253 250 246 241 240 242 242 240 238 237 235 231 229 230 231 231 231 231 228 228 230 232 234 231 226 227 225 224 224 224 223 219 219 221 224 222 215 206 201 198 201 212 218 213 202 202 209 216 212 209 210 199 183 176 171 177 203 223 226 212 182 173 161 119
308 307 304 303 303 300 297 295 292 290 286 281 278 275 271 266 262 259 256 252 250 251 252 252 252 251 248 243 238 238 239 239 238 237 234 231 229 228 230 232 231 230 229 230 230 232 232 225 223 227 225 224 225 224 223 220 217 218 222 219 209 205 204 197 202 214 217 211 203 202 206 210 209 210 209 197 184 179 178 185 198 211 218 213 200 185 169 150
312 311 308 307 307 305 303 301 299 297 292 287 284 281 278 272 268 263 259 256 253 250 249 248 248 248 247 245 239 236 236 235 235 236 235 232 229 227 227 229 230 229 228 229 229 229 227 221 222 225 223 222 223 223 223 222 220 219 220 216 205 204 203 198 204 213 214 211 205 205 209 210 211 213 209 197 188 181 180 190 197 204 214 217 209 190 176 170
314 313 311 311 312 312 312 311 310 307 302 296 291 287 284 280 276 271 265 262 259 254 251 249 248 247 244 243 240 237 236 235 233 233 234 232 230 227 226 227 228 229 228 229 229 227 222 220 222 223 221 220 220 221 221 222 221 219 219 214 205 205 203 199 205 212 215 211 206 210 215 214 215 216 208 198 194 186 185 192 196 203 212 219 216 201 189 183
315 315 315 316 317 317 316 317 316 315 314 310 303 295 290 287 285 279 272 268 264 259 256 252 249 248 244 241 239 236 236 236 233 232 232 231 230 227 226 225 226 227 227 227 228 225 217 217 221 221 220 220 219 219 219 222 222 216 213 211 207 205 203 200 206 212 216 214 212 217 220 218 218 218 208 201 200 195 189 188 193 204 209 214 218 210 200 193
317 319 319 317 316 313 312 313 312 312 314 314 311 305 299 295 293 288 280 275 268 261 259 256 252 248 244 241 238 235 236 235 233 232 231 231 231 229 225 224 224 225 226 226 228 226 218 218 222 222 222 222 220 219 220 223 221 209 204 209 208 205 202 200 206 212 213 215 218 222 225 225 224 220 210 204 205 201 189 181 188 201 205 211 218 217 208 199
320 320 318 316 315 312 311 310 308 310 311 309 306 304 301 299 298 296 289 284 276 266 261 259 255 249 244 241 237 235 235 234 233 231 230 229 229 228 226 223 222 223 224 226 227 224 219 219 222 222 222 221 220 219 219 222 218 205 203 208 206 204 201 199 205 207 209 216 220 221 226 231 230 224 215 209 208 202 186 176 181 189 195 203 212 218 213 206
320 318 316 315 315 313 310 307 304 307 309 306 301 297 295 294 295 295 292 290 286 277 270 264 258 251 245 241 237 234 233 234 232 230 229 227 226 227 227 223 222 222 222 223 224 220 217 218 219 220 219 218 218 217 217 218 214 204 204 206 204 203 200 200 204 203 207 218 220 217 222 232 232 226 221 219 215 204 186 179 184 187 192 197 201 211 215 212
319 316 315 315 315 314 310 306 303 303 304 305 302 298 296 295 295 294 292 292 289 283 278 271 264 255 248 242 238 235 232 232 231 228 227 225 223 223 222 219 218 219 219 220 221 218 215 214 215 216 215 214 215 213 213 214 210 204 203 203 203 203 200 201 203 201 208 219 219 213 218 230 234 228 225 231 229 215 195 185 189 185 180 188 195 205 214 215
318 317 317 316 316 314 311 308 305 303 303 304 303 302 301 302 301 299 297 294 288 284 279 273 268 262 253 244 239 236 232 231 230 226 224 222 220 218 218 217 217 219 217 217 218 217 215 212 211 213 213 213 213 211 209 210 207 204 203 203 203 202 201 202 202 204 212 219 215 210 215 228 236 232 229 237 237 226 203 185 187 183 176 188 199 205 212 213
318 317 317 316 315 313 312 310 306 304 302 301 300 302 303 304 305 304 302 297 292 288 282 272 266 263 259 249 241 238 234 231 227 224 221 220 219 217 217 219 221 221 219 217 217 218 216 212 209 210 212 212 213 210 209 209 208 205 204 205 205 204 204 204 205 208 215 218 212 207 216 230 239 234 229 236 240 233 214 188 182 182 191 210 221 216 209 208
320 318 316 315 314 313 312 310 306 303 300 298 299 300 301 303 304 304 301 297 294 291 285 277 267 261 259 254 246 240 236 231 225 221 219 219 218 217 216 217 218 219 218 216 217 218 217 214 210 211 212 212 213 211 210 211 211 209 207 210 211 211 211 211 211 214 218 219 212 207 219 233 240 237 230 236 241 237 226 204 188 184 193 210 221 221 207 203
321 319 318 317 316 314 313 309 305 302 299 298 299 298 299 300 301 300 297 295 293 289 285 281 273 261 255 252 248 243 239 234 225 219 218 217 217 216 215 214 214 216 216 215 215 217 217 213 211 213 214 213 213 212 210 211 211 210 208 211 213 214 216 217 216 218 222 222 216 214 225 237 242 241 234 233 238 238 231 220 204 193 191 202 211 210 199 198
323 321 320 319 317 314 311 308 305 302 299 298 298 298 299 299 299 297 296 295 292 287 282 279 274 263 252 247 246 243 241 237 228 219 216 216 216 215 214 213 212 213 213 212 214 216 216 211 207 211 212 212 213 212 211 212 212 210 209 211 212 212 216 219 218 219 222 224 224 223 228 237 241 241 236 231 233 236 234 227 216 203 196 202 206 199 192 195
325 323 321 320 317 314 311 308 305 302 299 298 299 301 302 301 299 298 298 297 293 288 281 273 267 259 249 242 240 239 238 237 230 220 215 214 214 213 213 212 211 210 211 212 212 215 217 211 206 208 209 207 210 211 211 212 211 211 211 212 212 210 213 217 218 219 222 226 228 226 228 234 239 239 236 233 232 234 237 236 226 213 207 210 209 198 190 192
327 325 324 323 320 315 311 307 304 301 300 302 304 305 305 303 302 302 302 300 295 287 278 267 258 250 244 238 235 233 232 232 228 220 215 212 212 212 211 211 210 209 210 211 212 214 216 213 207 208 208 205 205 207 209 209 209 210 212 211 212 213 213 214 214 216 220 225 227 225 227 233 238 238 235 235 234 234 238 240 236 228 218 213 212 200 188 187
328 327 326 324 321 316 311 306 303 303 304 307 308 308 308 308 307 307 305 301 295 284 271 260 251 245 240 235 232 228 227 226 224 220 216 213 212 212 210 210 209 209 208 209 211 213 215 213 207 206 208 206 204 204 206 206 206 207 208 208 210 215 216 217 218 218 220 224 226 225 227 232 237 237 234 234 236 235 237 239 240 239 230 218 216 212 198 191
329 329 326 323 321 316 310 306 305 307 309 311 311 311 312 312 311 311 307 300 291 279 266 256 249 244 238 234 231 228 224 223 221 219 216 213 212 212 211 209 209 209 208 208 209 212 214 213 207 204 207 207 205 205 205 205 207 208 208 206 206 210 212 216 220 220 220 224 227 227 228 231 234 234 232 232 232 233 236 237 238 241 239 231 227 230 225 212
330 329 326 322 319 314 308 308 309 311 313 314 315 316 317 316 314 311 304 293 280 273 269 259 248 243 238 234 233 230 225 221 219 219 216 213 212 212 211 210 209 209 208 207 208 210 213 213 207 203 206 207 206 206 205 204 206 209 211 210 207 209 209 211 216 218 218 222 225 227 228 227 227 231 233 233 231 232 236 238 239 239 241 239 233 232 233 227
331 330 328 324 320 313 310 312 313 316 319 320 320 320 320 318 315 309 300 284 271 274 279 265 249 243 239 236 235 234 231 224 219 219 218 212 210 211 211 210 209 209 208 207 207 208 211 212 207 202 206 208 206 206 205 204 206 207 210 210 208 210 211 212 217 217 217 221 224 229 230 222 215 223 229 232 232 232 234 238 238 236 236 237 233 229 231 231
333 331 330 327 322 315 314 317 318 322 324 325 324 323 321 319 315 308 295 277 270 275 278 266 252 246 242 239 238 237 236 233 226 223 223 217 211 209 210 210 209 209 209 208 207 207 209 211 207 201 204 206 204 205 205 205 207 208 209 208 206 209 212 215 220 219 221 223 224 230 230 210 197 209 216 222 223 220 222 227 230 229 228 227 225 223 224 229
335 332 331 330 324 316 317 321 325 328 329 328 328 326 323 321 316 306 288 274 270 271 268 258 248 247 246 244 243 241 241 242 237 233 233 229 218 209 207 210 210 210 210 209 208 207 208 209 206 200 201 201 198 200 202 203 206 207 207 207 205 207 210 214 217 217 220 222 222 227 223 196 193 203 205 211 213 210 213 217 220 221 218 214 212 212 215 221
338 335 334 333 328 319 319 325 331 334 333 331 330 328 326 322 315 303 286 276 273 273 268 251 239 243 246 246 248 247 247 250 249 244 243 242 232 216 206 206 209 210 211 210 209 208 207 208 205 198 197 198 194 196 201 202 205 207 206 206 205 205 208 211 213 215 217 217 219 221 208 182 192 199 194 202 207 206 211 212 212 214 213 210 206 206 209 214
341 338 337 336 332 323 319 324 333 337 336 334 332 331 330 323 309 298 289 280 274 270 263 246 236 242 247 247 250 252 253 258 260 255 251 251 244 226 210 203 206 209 211 211 210 209 207 207 205 198 196 197 194 196 201 203 205 207 207 207 206 205 206 209 213 215 215 215 217 216 199 181 195 196 185 192 201 202 208 211 211 212 213 211 207 207 208 210
343 341 339 339 335 327 322 324 333 337 337 336 336 334 333 326 307 294 290 281 270 262 253 245 242 245 249 251 252 254 257 263 268 266 260 257 251 235 217 204 201 207 211 211 211 210 207 207 206 199 196 197 195 196 201 203 204 206 208 208 206 205 206 208 211 212 213 215 215 212 201 193 200 194 180 184 194 196 203 210 213 214 213 212 207 204 204 205
346 344 341 340 337 332 330 331 334 338 338 338 339 339 337 331 312 294 291 279 267 263 254 249 249 251 255 256 255 256 260 266 272 273 267 264 257 240 224 210 199 201 208 211 211 211 208 207 207 201 195 197 196 195 199 203 204 205 207 208 207 206 207 207 208 209 212 213 211 210 207 201 200 193 180 181 187 189 195 203 206 208 210 209 204 200 199 200
349 346 342 341 339 336 335 336 337 340 340 340 342 343 341 336 318 296 292 282 270 267 259 254 255 258 261 263 262 262 266 271 273 272 270 269 263 244 228 215 201 196 203 209 212 211 209 208 208 202 195 196 195 193 197 201 203 204 206 207 207 208 207 207 206 207 210 212 209 210 209 200 191 184 180 182 184 183 188 197 200 202 201 197 195 193 193 197
351 348 344 341 340 338 337 338 339 341 343 343 345 346 345 341 325 297 290 281 269 269 268 265 264 264 265 268 268 270 274 276 275 273 272 272 266 248 231 219 206 195 197 205 211 212 210 209 209 203 195 194 194 192 195 199 201 203 205 206 208 209 208 207 206 205 208 210 206 205 204 192 181 181 183 184 182 181 188 199 204 203 194 185 183 184 187 194
354 351 347 343 341 339 338 339 340 343 345 346 347 348 348 345 331 306 294 282 269 268 270 272 274 274 273 272 274 277 278 279 278 278 277 275 267 250 233 221 209 197 193 200 207 211 210 209 209 203 194 192 192 190 193 198 200 203 206 207 208 209 208 205 205 205 206 206 203 201 197 185 177 182 185 186 185 184 192 201 207 206 197 186 181 182 187 196
356 354 350 345 343 340 338 339 343 346 348 350 350 350 351 349 338 318 303 289 275 270 270 271 276 278 277 276 278 280 280 281 283 284 284 284 275 252 233 221 211 200 191 195 204 209 209 208 209 204 194 192 191 188 190 197 200 202 206 207 206 206 205 203 204 204 204 203 201 200 194 183 181 183 183 186 190 189 193 202 207 208 202 192 187 189 193 198
Height
5870 5869 5869 5868 5868 5868 5867 5867 5866 5866 5865 5865 5864 5864 5864 5864 5863 5863 5863 5863 5863 5863 5864 5864 5864 5864 5864 5864 5864 5864 5864 5864 5864 5865 5866 5868 5870 5871 5872 5873 5873 5874 5875 5876 5877 5878 5879 5880 5881 5882 5884 5885 5885 5886 5887 5887 5888 5889 5889 5889 5890 5892 5894 5894 5895 5895 5895 5895 5895 5896 5897 5897 5897 5898 5898 5897 5898 5898 5898 5898 5898 5897 5897 5897 5897 5898 5898 5899
5868 5867 5867 5866 5866 5865 5865 5865 5864 5864 5863 5863 5862 5862 5862 5862 5861 5861 5861 5861 5861 5861 5861 5862 5862 5862 5862 5862 5862 5863 5863 5863 5863 5863 5865 5867 5868 5869 5870 5871 5872 5873 5874 5875 5876 5877 5878 5878 5879 5880 5882 5883 5884 5885 5886 5886 5886 5888 5888 5889 5890 5892 5894 5894 5895 5895 5895 5895 5895 5895 5896 5897 5897 5897 5898 5898 5898 5898 5898 5899 5898 5897 5897 5897 5897 5898 5898 5899
5866 5865 5864 5864 5863 5863 5863 5862 5862 5862 5861 5861 5860 5860 5860 5860 5859 5859 5859 5859 5859 5859 5859 5860 5860 5860 5860 5860 5861 5861 5861 5861 5861 5862 5864 5865 5866 5866 5868 5869 5870 5871 5871 5872 5874 5875 5876 5877 5878 5879 5880 5881 5883 5884 5885 5885 5886 5886 5887 5888 5889 5891 5893 5894 5895 5895 5895 5895 5895 5895 5896 5897 5897 5898 5898 5898 5899 5899 5898 5898 5898 5897 5897 5897 5897 5898 5899 5899
5863 5863 5862 5861 5861 5860 5860 5860 5859 5859 5859 5859 5858 5858 5858 5858 5857 5857 5857 5857 5857 5857 5858 5858 5858 5858 5858 5858 5859 5859 5859 5859 5859 5861 5862 5862 5863 5864 5865 5867 5867 5868 5869 5869 5871 5872 5874 5876 5877 5878 5879 5880 5882 5883 5884 5884 5885 5885 5886 5887 5888 5890 5892 5893 5894 5895 5895 5895 5895 5895 5896 5897 5897 5898 5898 5898 5899 5899 5898 5898 5898 5897 5897 5897 5897 5898 5899 5900
5860 5860 5859 5858 5858 5857 5857 5857 5856 5856 5856 5856 5855 5855 5855 5855 5855 5855 5855 5855 5855 5855 5856 5856 5856 5856 5856 5856 5856 5857 5857 5857 5858 5859 5860 5860 5861 5862 5863 5864 5864 5866 5867 5868 5869 5871 5873 5875 5877 5877 5878 5880 5881 5883 5884 5884 5884 5885 5885 5886 5887 5888 5891 5893 5893 5894 5894 5894 5895 5895 5896 5896 5897 5898 5897 5897 5898 5898 5898 5897 5897 5897 5897 5897 5898 5899 5899 5900
5857 5857 5856 5855 5855 5854 5853 5853 5853 5853 5853 5853 5852 5852 5852 5852 5852 5852 5852 5852 5852 5853 5853 5853 5854 5853 5854 5854 5854 5854 5855 5855 5856 5858 5858 5858 5859 5860 5861 5862 5863 5864 5866 5867 5867 5869 5872 5874 5875 5877 5878 5879 5881 5882 5882 5883 5884 5884 5884 5885 5886 5887 5889 5891 5892 5893 5893 5894 5894 5894 5895 5896 5896 5897 5897 5897 5898 5898 5898 5897 5897 5897 5898 5898 5899 5899 5899 5900
5854 5853 5853 5852 5851 5850 5850 5849 5849 5849 5849 5849 5849 5849 5849 5849 5849 5849 5850 5850 5850 5850 5851 5851 5851 5851 5851 5851 5851 5852 5852 5852 5854 5855 5855 5855 5856 5858 5859 5860 5861 5863 5864 5865 5866 5868 5870 5872 5875 5876 5877 5878 5880 5881 5881 5883 5883 5883 5884 5885 5885 5886 5887 5888 5890 5892 5892 5893 5893 5894 5895 5896 5897 5897 5897 5898 5899 5898 5898 5897 5897 5898 5898 5899 5899 5899 5900 5900
5851 5850 5849 5849 5848 5847 5846 5846 5845 5845 5845 5845 5845 5845 5845 5845 5846 5846 5846 5846 5846 5847 5847 5848 5848 5849 5849 5849 5849 5849 5849 5850 5851 5852 5853 5853 5854 5855 5856 5858 5859 5861 5862 5863 5864 5866 5868 5871 5873 5874 5875 5877 5878 5879 5879 5881 5882 5883 5883 5883 5884 5884 5885 5886 5888 5890 5891 5892 5892 5893 5894 5895 5896 5897 5897 5899 5899 5898 5898 5897 5897 5898 5899 5899 5899 5899 5899 5900
5848 5847 5846 5845 5844 5843 5843 5842 5842 5841 5841 5841 5841 5841 5841 5841 5842 5842 5843 5843 5843 5843 5844 5845 5845 5846 5846 5846 5846 5846 5846 5848 5848 5849 5850 5851 5852 5853 5854 5855 5857 5858 5858 5860 5861 5863 5865 5869 5871 5872 5873 5874 5875 5876 5877 5879 5881 5882 5882 5882 5882 5882 5883 5884 5885 5887 5888 5890 5891 5892 5893 5894 5895 5896 5896 5898 5898 5897 5897 5897 5897 5898 5899 5899 5900 5900 5900 5900
5844 5843 5843 5842 5841 5840 5839 5839 5838 5837 5837 5837 5837 5837 5837 5837 5837 5838 5838 5839 5839 5839 5840 5841 5842 5843 5843 5844 5844 5843 5844 5845 5845 5846 5847 5849 5850 5851 5852 5852 5854 5855 5856 5857 5859 5862 5865 5866 5867 5868 5868 5869 5871 5872 5874 5878 5879 5879 5879 5879 5879 5880 5881 5882 5883 5884 5885 5887 5889 5891 5892 5893 5894 5894 5895 5896 5896 5897 5897 5897 5897 5898 5899 5899 5900 5900 5900 5900
5841 5840 5839 5838 5837 5836 5836 5835 5834 5834 5833 5833 5833 5832 5833 5833 5833 5833 5834 5834 5835 5836 5836 5837 5838 5840 5840 5841 5841 5839 5841 5842 5842 5843 5845 5846 5847 5848 5849 5850 5851 5852 5854 5855 5857 5859 5861 5862 5862 5862 5864 5866 5868 5869 5872 5876 5876 5876 5876 5876 5877 5878 5879 5880 5882 5883 5883 5884 5886 5888 5890 5891 5893 5894 5894 5895 5896 5896 5896 5897 5897 5897 5898 5899 5900 5901 5901 5901
5838 5837 5836 5835 5834 5833 5832 5831 5830 5829 5829 5828 5828 5828 5828 5829 5829 5829 5829 5830 5830 5831 5832 5833 5834 5836 5837 5838 5837 5835 5838 5840 5840 5841 5842 5843 5843 5844 5846 5847 5848 5849 5851 5852 5854 5855 5856 5857 5857 5859 5863 5864 5865 5866 5869 5872 5872 5873 5873 5874 5876 5877 5878 5879 5881 5882 5882 5882 5883 5886 5888 5890 5892 5892 5893 5895 5895 5895 5896 5897 5897 5897 5898 5899 5900 5901 5901 5901
5834 5833 5832 5831 5830 5829 5828 5827 5826 5825 5825 5824 5824 5824 5824 5824 5824 5824 5825 5825 5825 5827 5827 5828 5830 5831 5833 5834 5832 5832 5835 5837 5838 5839 5838 5839 5839 5841 5842 5844 5845 5846 5847 5849 5849 5850 5852 5853 5854 5859 5860 5860 5863 5864 5867 5869 5868 5869 5870 5872 5874 5874 5877 5879 5880 5881 5881 5881 5882 5884 5887 5888 5890 5891 5893 5895 5895 5895 5895 5896 5897 5897 5898 5899 5900 5900 5901 5901
5831 5829 5828 5827 5826 5825 5824 5823 5822 5821 5821 5820 5819 5819 5820 5820 5820 5820 5820 5820 5820 5821 5822 5823 5825 5826 5830 5830 5826 5828 5832 5834 5835 5834 5834 5834 5835 5836 5838 5840 5841 5843 5845 5845 5846 5846 5848 5850 5852 5854 5854 5857 5861 5861 5863 5865 5866 5867 5867 5869 5871 5872 5876 5877 5878 5880 5881 5880 5880 5883 5886 5887 5889 5891 5892 5894 5894 5894 5895 5896 5897 5897 5898 5899 5899 5900 5901 5901
5827 5825 5823 5822 5821 5821 5820 5819 5818 5817 5816 5816 5814 5814 5815 5815 5815 5815 5815 5815 5815 5816 5817 5818 5820 5822 5825 5825 5821 5823 5828 5829 5830 5830 5831 5831 5831 5833 5835 5836 5837 5839 5841 5841 5842 5843 5844 5846 5849 5851 5853 5856 5857 5856 5859 5861 5863 5865 5865 5867 5869 5872 5875 5876 5876 5879 5879 5879 5879 5881 5885 5887 5889 5890 5892 5893 5893 5894 5895 5895 5896 5897 5898 5898 5899 5899 5901 5901
5823 5821 5819 5817 5816 5816 5815 5814 5813 5812 5811 5810 5809 5809 5810 5810 5811 5811 5810 5809 5809 5810 5812 5813 5815 5817 5820 5821 5818 5818 5822 5824 5826 5827 5829 5829 5829 5830 5831 5833 5834 5836 5837 5838 5838 5839 5840 5843 5847 5849 5851 5852 5851 5853 5857 5857 5859 5862 5863 5867 5869 5871 5874 5874 5876 5878 5878 5877 5877 5880 5883 5885 5888 5889 5891 5892 5892 5894 5894 5895 5896 5897 5898 5898 5898 5899 5900 5901
5818 5816 5814 5812 5811 5810 5809 5808 5807 5807 5806 5805 5804 5804 5805 5805 5806 5806 5805 5803 5803 5805 5807 5808 5810 5811 5813 5815 5814 5813 5814 5819 5821 5823 5825 5825 5826 5826 5827 5830 5832 5832 5833 5833 5834 5835 5837 5840 5843 5845 5846 5847 5849 5851 5852 5852 5856 5860 5863 5866 5868 5870 5872 5873 5875 5877 5876 5875 5876 5879 5880 5883 5886 5887 5888 5890 5891 5893 5893 5894 5895 5897 5898 5897 5898 5899 5900 5901
5813 5810 5808 5806 5805 5804 5803 5802 5801 5801 5800 5799 5799 5799 5799 5799 5800 5800 5798 5796 5797 5799 5801 5803 5805 5806 5807 5809 5810 5809 5809 5812 5817 5819 5821 5821 5821 5822 5824 5826 5827 5827 5827 5828 5831 5832 5834 5838 5840 5841 5842 5843 5845 5846 5848 5853 5858 5861 5862 5865 5867 5869 5871 5872 5874 5875 5874 5874 5876 5878 5878 5880 5883 5885 5887 5888 5890 5892 5892 5892 5894 5896 5897 5896 5897 5898 5900 5901
5807 5805 5802 5800 5798 5798 5797 5795 5795 5794 5793 5792 5792 5792 5793 5793 5794 5794 5791 5789 5792 5793 5794 5798 5800 5801 5802 5803 5803 5804 5805 5806 5810 5814 5816 5816 5815 5817 5819 5819 5820 5822 5823 5825 5828 5830 5831 5834 5834 5835 5839 5842 5844 5846 5850 5856 5858 5859 5860 5862 5865 5867 5870 5872 5873 5873 5873 5873 5875 5876 5877 5878 5881 5883 5886 5887 5889 5890 5891 5892 5893 5894 5895 5895 5895 5898 5899 5900
5801 5798 5796 5793 5791 5791 5789 5788 5787 5787 5787 5786 5786 5786 5786 5787 5787 5787 5784 5782 5785 5787 5788 5791 5794 5795 5796 5796 5797 5799 5801 5801 5804 5808 5811 5811 5810 5812 5813 5812 5814 5817 5820 5823 5826 5827 5827 5828 5829 5835 5841 5844 5845 5847 5849 5853 5854 5855 5856 5859 5861 5864 5868 5870 5871 5872 5871 5871 5873 5875 5875 5875 5878 5882 5885 5886 5887 5889 5890 5892 5892 5893 5894 5894 5894 5896 5899 5900
5794 5791 5789 5786 5783 5783 5782 5780 5779 5779 5779 5778 5778 5778 5779 5780 5781 5781 5778 5775 5776 5780 5782 5784 5786 5789 5790 5791 5792 5794 5797 5798 5799 5801 5804 5806 5805 5806 5807 5807 5809 5813 5818 5822 5821 5821 5821 5822 5829 5838 5840 5841 5841 5842 5844 5848 5850 5851 5853 5856 5858 5861 5865 5868 5869 5869 5868 5870 5872 5873 5872 5873 5876 5880 5882 5883 5884 5887 5890 5891 5892 5892 5893 5893 5893 5895 5897 5898
5787 5784 5782 5779 5775 5775 5774 5772 5770 5770 5770 5770 5770 5770 5771 5773 5773 5774 5774 5770 5768 5772 5775 5776 5778 5781 5783 5786 5787 5788 5791 5794 5794 5794 5797 5799 5799 5801 5802 5803 5806 5811 5816 5815 5814 5815 5815 5821 5832 5836 5835 5835 5836 5837 5839 5843 5846 5848 5849 5852 5855 5860 5863 5864 5865 5866 5866 5868 5870 5870 5869 5870 5874 5877 5879 5881 5883 5885 5887 5889 5891 5892 5892 5893 5892 5894 5896 5897
5779 5776 5775 5772 5768 5767 5766 5764 5762 5761 5761 5761 5761 5761 5762 5764 5764 5764 5767 5766 5763 5764 5766 5767 5770 5772 5775 5780 5782 5782 5785 5788 5788 5788 5790 5792 5793 5796 5796 5798 5802 5806 5808 5808 5809 5811 5814 5825 5832 5830 5829 5831 5832 5833 5836 5839 5841 5843 5845 5848 5853 5858 5860 5862 5864 5864 5863 5866 5868 5867 5867 5868 5871 5873 5875 5878 5881 5882 5884 5886 5889 5890 5891 5892 5891 5892 5895 5896
5773 5770 5767 5766 5762 5760 5759 5757 5755 5754 5752 5753 5753 5752 5753 5754 5755 5755 5756 5758 5757 5757 5758 5759 5761 5763 5767 5772 5775 5776 5778 5781 5781 5780 5781 5784 5787 5789 5791 5794 5797 5800 5802 5804 5807 5808 5813 5824 5825 5822 5825 5828 5828 5830 5832 5834 5837 5839 5841 5845 5852 5856 5858 5862 5863 5861 5861 5864 5864 5864 5864 5864 5865 5867 5870 5875 5877 5878 5880 5883 5885 5888 5890 5890 5889 5890 5893 5895
5768 5764 5761 5760 5758 5755 5753 5752 5750 5747 5745 5745 5745 5744 5744 5745 5746 5746 5747 5749 5749 5749 5751 5752 5753 5755 5759 5764 5767 5769 5771 5774 5773 5770 5774 5778 5780 5783 5785 5788 5790 5794 5798 5799 5801 5804 5811 5818 5817 5817 5821 5823 5824 5826 5828 5831 5834 5836 5838 5844 5851 5854 5857 5859 5858 5857 5858 5860 5862 5862 5861 5860 5862 5863 5867 5872 5874 5876 5878 5880 5882 5885 5888 5888 5888 5889 5892 5894
5763 5760 5757 5756 5754 5751 5750 5748 5746 5743 5741 5739 5738 5737 5737 5737 5737 5737 5739 5740 5740 5741 5742 5744 5745 5747 5752 5756 5758 5761 5763 5764 5763 5763 5767 5771 5773 5777 5780 5782 5785 5789 5793 5794 5795 5799 5807 5812 5811 5812 5815 5817 5819 5821 5825 5828 5830 5833 5838 5845 5850 5851 5853 5854 5854 5853 5854 5858 5861 5860 5858 5859 5859 5861 5865 5869 5871 5873 5876 5877 5881 5883 5885 5887 5887 5888 5890 5892
5759 5757 5754 5752 5751 5749 5747 5746 5743 5741 5739 5736 5733 5732 5731 5731 5731 5730 5731 5733 5734 5734 5734 5735 5738 5739 5743 5747 5750 5753 5752 5754 5755 5755 5759 5762 5765 5770 5774 5777 5781 5784 5787 5787 5786 5792 5803 5806 5805 5807 5810 5812 5814 5818 5823 5825 5827 5833 5839 5843 5844 5846 5849 5851 5851 5850 5853 5857 5858 5855 5855 5856 5855 5858 5864 5866 5868 5870 5872 5875 5879 5881 5883 5885 5886 5887 5889 5891
5756 5754 5751 5749 5748 5746 5744 5743 5740 5738 5737 5734 5731 5729 5728 5727 5726 5725 5725 5725 5726 5728 5727 5728 5731 5733 5735 5738 5741 5742 5743 5745 5747 5748 5752 5757 5760 5764 5766 5770 5774 5777 5780 5780 5781 5791 5801 5801 5801 5805 5807 5809 5813 5819 5822 5822 5826 5833 5836 5836 5838 5842 5845 5848 5848 5848 5852 5853 5851 5851 5853 5852 5852 5856 5861 5862 5864 5867 5869 5873 5876 5879 5881 5884 5885 5886 5888 5889
5753 5751 5748 5745 5744 5741 5740 5739 5737 5735 5733 5731 5729 5727 5726 5724 5723 5722 5721 5720 5720 5721 5722 5723 5724 5726 5727 5728 5731 5733 5735 5737 5739 5742 5746 5750 5753 5756 5759 5762 5765 5768 5772 5774 5779 5789 5795 5795 5796 5799 5802 5807 5813 5816 5817 5818 5823 5829 5831 5831 5834 5837 5840 5843 5841 5844 5848 5844 5843 5849 5850 5848 5849 5854 5857 5857 5859 5863 5868 5871 5874 5877 5880 5882 5883 5885 5886 5887
5750 5748 5745 5742 5740 5738 5736 5735 5733 5732 5730 5728 5726 5724 5723 5721 5720 5719 5717 5716 5715 5715 5717 5717 5718 5720 5719 5720 5722 5725 5728 5728 5731 5736 5740 5743 5746 5749 5754 5757 5757 5759 5764 5768 5772 5780 5785 5787 5789 5792 5797 5803 5807 5809 5811 5814 5819 5823 5824 5826 5828 5830 5834 5836 5835 5840 5841 5833 5836 5846 5848 5845 5845 5849 5852 5854 5859 5863 5867 5869 5872 5875 5877 5879 5881 5882 5884 5885
5746 5744 5741 5739 5736 5734 5732 5730 5728 5727 5725 5723 5721 5720 5719 5717 5717 5715 5713 5712 5710 5710 5713 5712 5712 5713 5712 5713 5715 5718 5720 5721 5724 5729 5732 5735 5739 5742 5744 5745 5746 5750 5755 5758 5763 5770 5775 5777 5781 5786 5792 5796 5798 5801 5805 5809 5813 5816 5817 5819 5822 5824 5828 5829 5830 5833 5828 5823 5833 5845 5846 5842 5838 5843 5849 5853 5860 5863 5864 5867 5870 5872 5875 5877 5879 5880 5882 5884
5743 5740 5737 5734 5732 5730 5728 5726 5723 5722 5720 5719 5717 5715 5714 5712 5712 5711 5709 5708 5705 5705 5708 5707 5707 5706 5705 5707 5710 5711 5713 5714 5717 5720 5724 5727 5729 5730 5730 5731 5736 5741 5745 5750 5755 5760 5764 5769 5775 5780 5784 5787 5790 5795 5799 5802 5805 5808 5810 5812 5815 5818 5820 5821 5821 5822 5818 5820 5833 5843 5843 5836 5831 5840 5848 5850 5856 5861 5861 5864 5867 5870 5873 5875 5877 5879 5880 5882
5739 5736 5732 5729 5727 5724 5722 5721 5718 5716 5715 5714 5712 5711 5709 5707 5706 5705 5704 5703 5700 5700 5701 5701 5702 5701 5700 5702 5704 5705 5706 5708 5711 5713 5715 5717 5719 5721 5722 5726 5732 5734 5739 5746 5749 5752 5757 5763 5768 5772 5777 5781 5785 5789 5793 5795 5799 5802 5805 5807 5809 5811 5812 5813 5815 5816 5816 5821 5833 5841 5839 5829 5827 5838 5845 5847 5852 5858 5859 5861 5863 5866 5870 5873 5876 5877 5878 5879
5736 5731 5727 5724 5722 5719 5717 5715 5713 5711 5709 5708 5707 5706 5704 5702 5701 5700 5699 5698 5696 5695 5695 5694 5695 5695 5695 5695 5697 5699 5701 5703 5706 5706 5707 5709 5711 5714 5717 5721 5725 5727 5734 5740 5741 5745 5750 5756 5764 5769 5774 5778 5781 5786 5791 5794 5797 5800 5805 5807 5808 5809 5810 5813 5815 5815 5816 5822 5832 5838 5831 5822 5825 5837 5844 5846 5849 5853 5856 5860 5860 5862 5866 5870 5873 5874 5876 5877
5731 5727 5722 5719 5716 5714 5712 5710 5708 5706 5704 5703 5702 5700 5699 5697 5695 5694 5693 5692 5690 5689 5688 5688 5688 5688 5688 5689 5690 5693 5695 5696 5700 5701 5702 5703 5704 5707 5710 5713 5716 5721 5729 5732 5733 5737 5742 5752 5765 5769 5771 5775 5778 5784 5789 5790 5792 5797 5802 5802 5804 5808 5812 5815 5817 5817 5819 5822 5828 5829 5822 5818 5825 5836 5843 5845 5845 5847 5852 5857 5858 5859 5862 5866 5869 5870 5873 5875
5726 5722 5718 5715 5711 5709 5707 5705 5703 5701 5699 5698 5696 5695 5694 5692 5690 5688 5687 5685 5683 5681 5681 5681 5680 5679 5680 5682 5683 5686 5689 5690 5693 5695 5696 5697 5698 5699 5702 5706 5710 5715 5719 5721 5726 5731 5736 5747 5757 5758 5762 5771 5777 5782 5784 5784 5789 5792 5794 5796 5802 5809 5812 5813 5815 5817 5818 5819 5822 5823 5819 5819 5825 5833 5839 5841 5841 5844 5848 5852 5857 5858 5860 5862 5864 5867 5870 5873
5722 5718 5714 5711 5707 5704 5702 5700 5698 5696 5694 5692 5690 5689 5688 5685 5683 5681 5680 5678 5674 5672 5672 5672 5671 5670 5672 5674 5675 5679 5682 5683 5686 5688 5690 5691 5692 5692 5694 5698 5702 5706 5709 5713 5719 5724 5730 5741 5747 5748 5756 5766 5771 5775 5777 5780 5785 5787 5790 5797 5803 5806 5805 5807 5811 5813 5813 5813 5816 5820 5820 5819 5823 5830 5836 5838 5839 5841 5844 5849 5854 5857 5858 5860 5862 5865 5867 5870
5717 5714 5710 5706 5703 5700 5697 5695 5693 5692 5690 5687 5685 5683 5682 5679 5676 5674 5671 5669 5666 5663 5662 5661 5661 5661 5663 5666 5667 5671 5674 5675 5678 5682 5683 5685 5686 5686 5688 5691 5695 5699 5702 5707 5712 5717 5724 5735 5743 5746 5752 5759 5762 5765 5768 5773 5779 5784 5791 5796 5797 5798 5799 5801 5803 5805 5807 5807 5811 5817 5817 5816 5819 5827 5833 5835 5838 5840 5842 5846 5849 5853 5856 5859 5861 5864 5865 5868
5713 5709 5705 5701 5698 5696 5693 5691 5689 5687 5685 5682 5679 5677 5675 5671 5668 5666 5663 5659 5656 5654 5652 5651 5652 5654 5656 5657 5659 5663 5666 5668 5671 5675 5676 5677 5679 5680 5682 5685 5688 5692 5696 5700 5705 5710 5717 5728 5736 5741 5746 5751 5753 5755 5760 5768 5775 5780 5784 5788 5790 5793 5797 5799 5800 5803 5805 5805 5808 5813 5814 5812 5817 5825 5830 5834 5837 5840 5841 5843 5846 5850 5854 5857 5860 5862 5864 5866
5708 5705 5701 5697 5694 5691 5689 5687 5684 5682 5680 5677 5674 5671 5669 5665 5660 5657 5654 5651 5648 5646 5645 5644 5645 5647 5648 5649 5651 5655 5660 5662 5665 5669 5670 5670 5673 5676 5677 5679 5682 5685 5690 5695 5699 5704 5711 5720 5729 5736 5740 5743 5746 5750 5760 5768 5772 5775 5776 5779 5783 5787 5791 5795 5797 5800 5803 5804 5806 5809 5809 5811 5818 5824 5827 5831 5835 5838 5840 5841 5844 5847 5851 5855 5858 5860 5862 5865
5705 5701 5697 5693 5690 5687 5685 5683 5680 5678 5675 5672 5669 5666 5662 5658 5654 5649 5646 5643 5641 5640 5640 5639 5639 5641 5642 5644 5647 5650 5654 5657 5659 5662 5663 5665 5668 5670 5671 5674 5677 5680 5684 5689 5694 5699 5705 5712 5722 5730 5732 5736 5742 5752 5760 5765 5767 5770 5772 5776 5780 5782 5785 5788 5789 5793 5798 5800 5803 5805 5806 5810 5818 5822 5824 5828 5832 5836 5838 5839 5842 5845 5848 5851 5854 5857 5860 5862
5701 5697 5694 5689 5686 5683 5680 5678 5676 5673 5670 5667 5664 5660 5656 5652 5648 5643 5639 5637 5636 5636 5636 5635 5635 5636 5638 5640 5643 5645 5648 5651 5652 5654 5657 5659 5661 5664 5666 5669 5672 5675 5679 5683 5688 5692 5698 5705 5716 5724 5727 5733 5743 5751 5756 5759 5761 5764 5767 5772 5778 5779 5781 5784 5786 5791 5796 5797 5800 5803 5804 5811 5818 5820 5822 5824 5828 5833 5836 5837 5840 5843 5845 5848 5851 5853 5856 5858
5696 5693 5689 5686 5682 5679 5676 5674 5672 5669 5665 5662 5659 5655 5651 5647 5642 5637 5634 5632 5632 5632 5633 5632 5632 5633 5634 5637 5639 5641 5642 5644 5646 5648 5650 5652 5655 5658 5661 5664 5667 5671 5674 5678 5681 5687 5693 5700 5710 5720 5726 5733 5742 5748 5752 5756 5757 5758 5760 5766 5771 5774 5780 5785 5788 5792 5794 5796 5800 5802 5805 5811 5815 5816 5819 5821 5824 5828 5831 5832 5836 5839 5842 5844 5847 5850 5852 5855
5692 5688 5685 5682 5679 5676 5673 5670 5667 5664 5661 5657 5653 5649 5644 5640 5636 5632 5630 5628 5628 5629 5630 5630 5630 5630 5631 5633 5635 5636 5637 5638 5640 5643 5645 5646 5648 5652 5656 5660 5663 5666 5668 5672 5676 5681 5687 5693 5704 5715 5721 5728 5736 5741 5745 5748 5748 5749 5755 5761 5766 5772 5779 5782 5785 5788 5790 5793 5798 5800 5804 5810 5812 5813 5817 5819 5822 5825 5826 5828 5832 5835 5838 5841 5844 5846 5849 5852
5690 5684 5681 5678 5676 5673 5670 5667 5664 5660 5656 5652 5648 5644 5639 5634 5630 5628 5626 5625 5625 5626 5626 5626 5626 5627 5628 5630 5631 5632 5633 5634 5635 5637 5638 5638 5640 5645 5651 5655 5658 5660 5663 5667 5671 5676 5682 5688 5697 5706 5712 5718 5725 5731 5735 5738 5739 5745 5752 5758 5763 5769 5773 5776 5779 5781 5784 5789 5794 5796 5803 5809 5809 5810 5814 5817 5820 5823 5824 5826 5829 5832 5835 5837 5840 5843 5845 5848
5688 5682 5678 5675 5672 5669 5666 5663 5660 5657 5653 5649 5644 5640 5636 5631 5626 5624 5623 5622 5621 5622 5622 5623 5624 5625 5625 5627 5628 5628 5629 5630 5631 5632 5632 5631 5633 5638 5644 5649 5652 5655 5659 5664 5668 5672 5678 5683 5690 5699 5706 5712 5718 5723 5728 5731 5736 5744 5751 5755 5760 5764 5766 5770 5774 5776 5781 5787 5790 5794 5802 5806 5806 5808 5812 5815 5818 5821 5822 5825 5827 5830 5832 5835 5837 5839 5842 5845
5685 5679 5674 5671 5668 5665 5662 5659 5657 5654 5650 5646 5642 5637 5633 5629 5625 5622 5621 5620 5619 5619 5620 5621 5622 5622 5623 5624 5625 5625 5627 5628 5627 5627 5626 5625 5626 5631 5636 5642 5646 5651 5656 5661 5664 5668 5674 5679 5685 5694 5702 5707 5713 5719 5724 5729 5735 5742 5747 5751 5756 5759 5761 5764 5767 5772 5780 5784 5786 5793 5800 5803 5804 5807 5810 5813 5816 5819 5822 5825 5828 5829 5831 5833 5835 5837 5840 5842
5682 5677 5672 5669 5665 5662 5659 5656 5653 5650 5646 5642 5639 5635 5630 5626 5623 5621 5619 5618 5617 5618 5619 5619 5619 5620 5620 5621 5622 5623 5625 5626 5625 5623 5621 5620 5620 5624 5629 5635 5640 5646 5652 5656 5660 5664 5671 5676 5682 5690 5697 5703 5710 5717 5721 5726 5733 5738 5743 5747 5751 5754 5757 5760 5764 5771 5776 5780 5785 5792 5798 5800 5803 5806 5809 5812 5815 5817 5820 5824 5827 5829 5831 5832 5834 5836 5838 5840
5680 5675 5670 5666 5663 5659 5657 5654 5650 5647 5643 5639 5635 5631 5627 5623 5621 5619 5618 5616 5616 5616 5617 5617 5617 5618 5618 5618 5619 5620 5621 5622 5621 5620 5617 5616 5616 5618 5622 5629 5634 5640 5646 5651 5655 5661 5668 5673 5677 5685 5694 5702 5708 5714 5718 5723 5729 5735 5738 5741 5744 5748 5753 5758 5763 5768 5773 5778 5785 5791 5795 5798 5802 5805 5808 5811 5812 5814 5817 5821 5825 5827 5829 5831 5832 5834 5836 5838
5678 5673 5668 5664 5660 5657 5654 5651 5648 5644 5640 5636 5632 5629 5625 5621 5619 5617 5616 5616 5615 5614 5615 5615 5616 5616 5616 5616 5617 5618 5618 5617 5617 5616 5614 5612 5612 5612 5616 5623 5629 5634 5641 5647 5651 5657 5665 5670 5674 5683 5694 5700 5705 5710 5715 5720 5726 5729 5731 5735 5740 5745 5751 5757 5762 5766 5771 5776 5782 5787 5790 5795 5799 5802 5805 5807 5809 5811 5815 5818 5822 5825 5828 5830 5831 5833 5835 5837
5677 5672 5666 5661 5658 5654 5652 5649 5646 5642 5638 5634 5630 5626 5623 5620 5618 5616 5615 5615 5614 5614 5613 5613 5614 5614 5614 5614 5614 5614 5614 5613 5612 5611 5609 5608 5608 5607 5610 5616 5623 5629 5636 5642 5647 5654 5661 5666 5671 5680 5691 5696 5700 5706 5712 5718 5722 5725 5727 5732 5738 5744 5749 5755 5759 5763 5768 5773 5779 5783 5787 5792 5796 5799 5801 5804 5806 5809 5812 5816 5819 5822 5825 5828 5829 5831 5834 5835
5675 5670 5665 5660 5656 5652 5650 5647 5644 5640 5636 5632 5628 5625 5621 5618 5616 5615 5613 5613 5613 5613 5613 5612 5613 5612 5612 5612 5611 5611 5610 5610 5608 5607 5605 5604 5603 5603 5605 5611 5619 5626 5631 5637 5643 5650 5657 5663 5668 5677 5687 5692 5696 5703 5710 5714 5718 5721 5724 5729 5735 5741 5746 5752 5756 5760 5765 5769 5774 5779 5784 5789 5792 5795 5798 5801 5804 5806 5810 5813 5816 5818 5822 5825 5827 5829 5832 5834